Tracking 20093 objects as of 14-Dec-2019
HD Live streaming from Space Station
objects crossing your sky now

COSMOS 2251 DEB

Track COSMOS 2251 DEB now!
10-day predictions


NORAD ID: 34409
Int'l Code: 1993-036RA
Perigee: 659.8 km
Apogee: 781.2 km
Inclination: 74.1 °
Period: 99.1 minutes
Semi major axis: 7091 km
RCS: 0.0076 m2 (small)
Launch date: June 16, 1993
Source: Commonwealth of Independent States (former USSR) (CIS)
Launch site: PLESETSK MISSILE AND SPACE COMPLEX (PKMTR)

Note: This is SATELLITE DEBRIS
aabbcc
Your satellite tracking list
Your tracking list is empty




NASA's NSSDC Master Catalog

Two Line Element Set (TLE):
1 34409U 93036RA  19347.81916781 +.00000075 +00000-0 +24009-4 0  9997
2 34409 074.0635 127.7514 0085584 050.4343 103.2835 14.53759014573278
Source of the keplerian elements: AFSPC